Stations météo

réclame
Mon MeteoGroup
Huesca, Espagne (8094): Température de l'air & dewpoint: 20.09.2018 11:00:00 - 26.09.2018 11:00:00 (CEST)Huesca, Espagne (8094): Vitesse du vent: 20.09.2018 11:00:00 - 26.09.2018 11:00:00 (CEST)Huesca, Espagne (8094): Direction du vent: 20.09.2018 11:00:00 - 26.09.2018 11:00:00 (CEST)Huesca, Espagne (8094): reduced air pressure: 20.09.2018 11:00:00 - 26.09.2018 11:00:00 (CEST)Huesca, Espagne (8094): visibility: 20.09.2018 11:00:00 - 26.09.2018 11:00:00 (CEST)Huesca, Espagne (8094): Quantités de précipitations: 20.09.2018 11:00:00 - 26.09.2018 11:00:00 (CEST)
Date & Time tt [°C] td [°C] ff [km/h] ff [knt] dd ppp [hPa] vv [km] rr [mm]
26.09.2018 11:00:00 - - - - - - - -
26.09.2018 10:00:00 19,6 8,9 16 9 ESE 1029,8 - 0,0
26.09.2018 09:00:00 15,5 9,2 11 6 E 1030,3 - 0,0
26.09.2018 08:00:00 14,7 8,9 11 6 E 1029,9 - -
26.09.2018 07:00:00 14,9 9,7 11 6 E 1029,1 - 0,0
26.09.2018 06:00:00 14,8 10,8 11 6 E 1028,7 - 0,0
26.09.2018 05:00:00 14,7 11,1 13 7 E 1028,6 - -
26.09.2018 04:00:00 15,1 11,3 13 7 E 1028,5 - 0,0
26.09.2018 03:00:00 14,5 9,5 11 6 E 1028,7 - 0,0
26.09.2018 02:00:00 14,9 9,7 11 6 E 1028,6 - -
26.09.2018 01:00:00 14,9 9,0 11 6 E 1028,3 - 0,0
26.09.2018 00:00:00 15,3 9,0 9 5 E 1027,9 - 0,0
25.09.2018 23:00:00 15,6 8,1 8 4 E 1027,5 - -
25.09.2018 22:00:00 16,0 8,0 5 3 ENE 1026,8 - 0,0
25.09.2018 21:00:00 17,0 7,9 5 3 E 1026,2 - 0,0
25.09.2018 20:00:00 18,1 7,5 5 3 SE 1025,4 - -
25.09.2018 19:00:00 19,8 7,2 11 6 SSE 1024,4 - 0,0
25.09.2018 18:00:00 21,4 6,5 11 6 SSE 1023,6 - 0,0
25.09.2018 17:00:00 21,9 7,3 13 7 SE 1023,5 50 -
25.09.2018 16:00:00 21,4 8,0 9 5 SE 1023,8 - 0,0
25.09.2018 15:00:00 21,0 6,5 11 6 SE 1024,3 - 0,0
25.09.2018 14:00:00 19,6 5,6 11 6 SE 1025,2 50 -
25.09.2018 13:00:00 17,6 5,8 9 5 E 1026,2 - 0,0
25.09.2018 12:00:00 16,4 6,2 9 5 SE 1027,0 - 0,0
25.09.2018 11:00:00 14,3 7,1 9 5 SE 1027,4 45 -
25.09.2018 10:00:00 11,5 7,0 11 6 ESE 1027,3 - 0,0
25.09.2018 09:00:00 8,8 6,4 8 4 ESE 1027,5 - 0,0
25.09.2018 08:00:00 6,9 5,5 9 5 ESE 1027,3 - -
25.09.2018 07:00:00 6,8 5,1 5 3 ESE 1026,8 - 0,0
25.09.2018 06:00:00 7,2 5,0 5 3 ESE 1026,6 - 0,0
25.09.2018 05:00:00 8,1 5,6 4 2 S 1025,9 - -
25.09.2018 04:00:00 8,8 5,9 4 2 S 1025,8 - 0,0
25.09.2018 03:00:00 9,4 5,9 5 3 WSW 1025,7 - 0,0
25.09.2018 02:00:00 10,1 5,9 5 3 WSW 1025,3 - -
25.09.2018 01:00:00 11,0 5,7 8 4 W 1024,9 - 0,0
25.09.2018 00:00:00 11,4 5,3 9 5 WNW 1024,3 - 0,0
24.09.2018 23:00:00 12,9 4,8 8 4 W 1023,4 - -
24.09.2018 22:00:00 14,7 5,7 11 6 W 1022,2 - 0,0
24.09.2018 21:00:00 16,5 5,7 11 6 W 1021,2 - 0,0
24.09.2018 20:00:00 19,2 5,3 9 5 W 1019,9 - -
24.09.2018 19:00:00 22,4 5,3 11 6 W 1018,8 - 0,0
24.09.2018 18:00:00 25,3 5,5 11 6 W 1018,1 - 0,0
24.09.2018 17:00:00 26,3 5,8 13 7 W 1018,1 50 -
24.09.2018 16:00:00 26,3 5,8 15 8 W 1018,7 - 0,0
24.09.2018 15:00:00 26,2 7,7 13 7 W 1019,5 - 0,0
24.09.2018 14:00:00 25,8 8,7 13 7 W 1020,3 50 -
24.09.2018 13:00:00 26,3 9,2 11 6 W 1020,6 - 0,0
24.09.2018 12:00:00 25,0 10,8 13 7 W 1021,0 - 0,0
24.09.2018 11:00:00 23,8 11,8 11 6 WNW 1021,4 60 -
24.09.2018 10:00:00 21,6 12,7 9 5 WNW 1021,4 - 0,0
24.09.2018 09:00:00 18,2 14,5 5 3 W 1021,7 - 0,0
24.09.2018 08:00:00 16,8 14,6 5 3 W 1021,6 - -
24.09.2018 07:00:00 17,0 14,6 8 4 WNW 1021,2 - 0,0
24.09.2018 06:00:00 17,5 14,2 8 4 W 1021,2 - 0,0
24.09.2018 05:00:00 17,7 13,4 8 4 WNW 1021,0 - -
24.09.2018 04:00:00 17,9 13,0 9 5 W 1021,0 - 0,0
24.09.2018 03:00:00 18,9 13,1 8 4 WNW 1021,1 - 0,0
24.09.2018 02:00:00 19,6 12,6 8 4 WNW 1021,2 - -
24.09.2018 01:00:00 21,2 12,1 5 3 NW 1021,1 - 0,0
24.09.2018 00:00:00 21,6 11,9 8 4 W 1021,0 - 0,0
23.09.2018 23:00:00 23,0 11,1 5 3 WNW 1020,1 - -
23.09.2018 22:00:00 23,9 10,9 5 3 NW 1019,8 - 0,0
23.09.2018 21:00:00 26,0 11,0 5 3 NNW 1019,0 - 0,0
23.09.2018 20:00:00 28,7 11,3 9 5 NW 1017,7 - -
23.09.2018 19:00:00 30,6 10,5 11 6 W 1016,9 - 0,0
23.09.2018 18:00:00 32,2 11,4 11 6 W 1016,4 - 0,0
23.09.2018 17:00:00 32,6 11,7 9 5 W 1016,8 60 -
23.09.2018 16:00:00 32,3 10,9 11 6 WSW 1017,5 - 0,0
23.09.2018 15:00:00 31,1 11,5 9 5 W 1018,6 - 0,0
23.09.2018 14:00:00 29,3 12,3 8 4 NW 1020,1 60 -
23.09.2018 13:00:00 28,0 11,5 5 3 WSW 1020,8 - 0,0
23.09.2018 12:00:00 26,0 12,8 5 3 SW 1021,7 - 0,0
23.09.2018 11:00:00 23,7 13,3 5 3 SW 1022,4 60 -
23.09.2018 10:00:00 22,6 12,2 5 3 SE 1022,2 - 0,0
23.09.2018 09:00:00 18,9 12,2 4 2 E 1022,4 - 0,0
23.09.2018 08:00:00 16,0 10,5 2 1 NNW 1022,9 - -
23.09.2018 07:00:00 16,6 10,4 2 1 W 1022,4 - 0,0
23.09.2018 06:00:00 17,0 10,4 2 1 N 1022,3 - 0,0
23.09.2018 05:00:00 17,9 10,5 4 2 WSW 1022,2 - -
23.09.2018 04:00:00 18,7 10,3 8 4 E 1022,1 - 0,0
23.09.2018 03:00:00 19,0 10,8 5 3 SSW 1022,3 - 0,0
23.09.2018 02:00:00 19,5 9,9 5 3 ESE 1022,1 - -
23.09.2018 01:00:00 20,9 10,1 4 2 N 1021,7 - 0,0
23.09.2018 00:00:00 21,5 9,7 4 2 NW 1021,5 - 0,0
22.09.2018 23:00:00 22,5 10,3 4 2 WNW 1021,3 - -
22.09.2018 22:00:00 24,2 10,1 5 3 WNW 1020,6 - 0,0
22.09.2018 21:00:00 25,2 12,1 5 3 NW 1019,9 - 0,0
22.09.2018 20:00:00 27,3 11,7 8 4 W 1018,9 - -
22.09.2018 19:00:00 29,5 11,1 9 5 W 1017,9 - 0,0
22.09.2018 18:00:00 30,5 11,0 9 5 W 1017,6 - 0,0
22.09.2018 17:00:00 31,1 12,0 9 5 W 1017,8 60 -
22.09.2018 16:00:00 30,7 13,5 9 5 W 1018,2 - 0,0
22.09.2018 15:00:00 29,2 12,6 9 5 W 1019,1 - 0,0
22.09.2018 14:00:00 27,9 13,0 8 4 W 1020,3 60 -
22.09.2018 13:00:00 25,3 14,4 8 4 W 1021,3 - 0,0
22.09.2018 12:00:00 22,4 14,3 5 3 W 1022,3 - 0,0
22.09.2018 11:00:00 20,2 13,6 4 2 W 1022,8 55 -
22.09.2018 10:00:00 17,4 13,5 5 3 NW 1022,8 - 0,0
22.09.2018 09:00:00 16,0 13,1 5 3 NW 1022,6 - 0,0
22.09.2018 08:00:00 15,3 12,8 8 4 NW 1022,3 - -
22.09.2018 07:00:00 14,8 12,8 5 3 W 1022,1 - 0,0
22.09.2018 06:00:00 15,1 12,6 8 4 WNW 1021,6 - 0,0
22.09.2018 05:00:00 15,6 12,7 8 4 NW 1021,5 - -
22.09.2018 04:00:00 16,1 11,9 5 3 W 1021,4 - 0,0
22.09.2018 03:00:00 17,1 10,7 8 4 W 1021,3 - 0,0
22.09.2018 02:00:00 17,5 11,3 8 4 WNW 1021,1 - -
22.09.2018 01:00:00 18,8 10,1 5 3 NW 1020,9 - 0,0
22.09.2018 00:00:00 20,5 9,1 8 4 W 1020,3 - 0,0
21.09.2018 23:00:00 21,6 8,8 8 4 NW 1019,5 - -
21.09.2018 22:00:00 22,4 8,5 5 3 NNW 1018,9 - 0,0
21.09.2018 21:00:00 24,0 9,2 5 3 NW 1017,9 - 0,0
21.09.2018 20:00:00 26,5 9,4 5 3 NNW 1016,4 - -
21.09.2018 19:00:00 28,4 9,6 9 5 NW 1015,4 - 0,0
21.09.2018 18:00:00 30,0 10,5 11 6 NNW 1014,8 - 0,0
21.09.2018 17:00:00 31,0 10,9 8 4 NNW 1014,2 40 -
21.09.2018 16:00:00 31,0 14,2 8 4 W 1014,5 - 0,0
21.09.2018 15:00:00 30,4 13,7 8 4 W 1015,0 - 0,0
21.09.2018 14:00:00 28,6 15,2 5 3 NW 1016,0 35 -
21.09.2018 13:00:00 27,4 14,4 8 4 WSW 1016,7 - 0,0
21.09.2018 12:00:00 26,2 14,6 5 3 W 1017,2 - 0,0
21.09.2018 11:00:00 24,3 15,2 4 2 W 1017,3 40 -
21.09.2018 10:00:00 22,0 15,6 5 3 NW 1017,6 - 0,0
21.09.2018 09:00:00 19,1 15,2 8 4 NNW 1017,8 - 0,0
21.09.2018 08:00:00 17,5 14,8 5 3 W 1017,5 - -
21.09.2018 07:00:00 18,1 14,4 4 2 SSE 1016,8 - 0,0
21.09.2018 06:00:00 18,4 14,5 9 5 E 1016,5 - 0,0
21.09.2018 05:00:00 18,8 14,7 11 6 ESE 1016,5 - -
21.09.2018 04:00:00 20,6 14,7 13 7 E 1016,3 - 0,0
21.09.2018 03:00:00 20,9 15,0 11 6 E 1016,6 - 0,0
21.09.2018 02:00:00 20,8 15,1 11 6 E 1016,8 - -
21.09.2018 01:00:00 21,5 14,9 11 6 E 1017,1 - 0,0
21.09.2018 00:00:00 21,5 14,6 9 5 E 1017,0 - 0,0
20.09.2018 23:00:00 22,2 14,8 11 6 E 1016,6 - -
20.09.2018 22:00:00 22,9 14,2 8 4 E 1016,5 - 0,0
20.09.2018 21:00:00 24,5 14,6 8 4 SE 1015,6 - 0,0
20.09.2018 20:00:00 26,7 14,8 5 3 S 1014,8 - -
20.09.2018 19:00:00 29,1 14,1 5 3 SW 1014,4 - 0,0
20.09.2018 18:00:00 30,0 14,5 8 4 WSW 1014,4 - 0,0
20.09.2018 17:00:00 30,1 14,6 8 4 W 1015,0 40 -
20.09.2018 16:00:00 29,9 13,6 5 3 WSW 1015,7 - 0,0
20.09.2018 15:00:00 29,3 13,9 8 4 WSW 1016,3 - 0,0
20.09.2018 14:00:00 28,7 15,9 9 5 SSW 1017,1 40 -
20.09.2018 13:00:00 27,8 16,1 5 3 SSW 1018,1 - 0,0
20.09.2018 12:00:00 26,1 16,4 5 3 S 1019,0 - 0,0
20.09.2018 11:00:00 23,4 16,4 2 1 S 1019,8 45 -

tt = Température de l'air
td = dewpoint
ff = Vitesse du vent
dd = Direction du vent
ppp = reduced air pressure
vv = visibility
rr = Quantités de précipitations

stations d'obs. à proximité